Wetterdaten: aktuell Freitag, 20.05.2022 13:25
Datum Zeit Temp. A. Temp. A. min Feuchte A. Luftdruck Regen Wind Richtung Richtung Sonnenschein Solar Taupunkt Windchill Windben
20.05.2022 13:25 28,6 C 28,6 C 52 % 1016,1 hPa 0,0 l/m 0,1 km/h (0 Bft) W 275 0 min 0 W/m 17,8 C 28,6 C 3,2 km/h (1 Bft)
20.05.2022 13:20 28,8 C 28,7 C 52 % 1016,2 hPa 0,0 l/m 0,6 km/h (0 Bft) W 277 0 min 0 W/m 17,9 C 28,8 C 4,8 km/h (1 Bft)
20.05.2022 13:15 28,7 C 28,6 C 48 % 1016,5 hPa 0,0 l/m 3,5 km/h (1 Bft) W 275 0 min 0 W/m 16,6 C 28,7 C 11,3 km/h (2 Bft)
20.05.2022 13:11 28,6 C 28,5 C 48 % 1016,5 hPa 0,0 l/m 2,0 km/h (1 Bft) W-NW 293 0 min 0 W/m 16,5 C 28,6 C 9,7 km/h (2 Bft)
20.05.2022 13:05 28,5 C 28,3 C 53 % 1016,6 hPa 0,0 l/m 0,4 km/h (0 Bft) W-SW 251 0 min 0 W/m 18,0 C 28,5 C 3,2 km/h (1 Bft)
20.05.2022 13:00 28,3 C 28,2 C 53 % 1016,8 hPa 0,0 l/m 0,0 km/h (0 Bft) S 177 0 min 0 W/m 17,8 C 28,3 C 1,6 km/h (1 Bft)
20.05.2022 12:55 28,3 C 28,2 C 57 % 1016,9 hPa 0,0 l/m 1,6 km/h (1 Bft) S-SW 196 0 min 0 W/m 18,9 C 28,3 C 4,8 km/h (1 Bft)
20.05.2022 12:51 28,2 C 28,1 C 53 % 1017,0 hPa 0,0 l/m 3,4 km/h (1 Bft) S 184 0 min 0 W/m 17,7 C 28,2 C 12,9 km/h (3 Bft)
20.05.2022 12:45 28,2 C 27,9 C 57 % 1016,9 hPa 0,0 l/m 2,9 km/h (1 Bft) W-SW 255 0 min 0 W/m 18,9 C 28,2 C 11,3 km/h (2 Bft)
20.05.2022 12:40 27,9 C 27,8 C 61 % 1016,9 hPa 0,0 l/m 2,1 km/h (1 Bft) SW 214 0 min 0 W/m 19,7 C 27,9 C 9,7 km/h (2 Bft)
20.05.2022 12:36 27,8 C 27,4 C 56 % 1016,9 hPa 0,0 l/m 3,6 km/h (1 Bft) W 269 0 min 0 W/m 18,2 C 27,8 C 12,9 km/h (3 Bft)
20.05.2022 12:30 27,6 C 27,4 C 57 % 1017,0 hPa 0,0 l/m 2,2 km/h (1 Bft) W-NW 286 0 min 0 W/m 18,3 C 27,6 C 11,3 km/h (2 Bft)
20.05.2022 12:25 27,5 C 27,1 C 58 % 1017,1 hPa 0,0 l/m 1,0 km/h (0 Bft) S-SW 205 0 min 0 W/m 18,5 C 27,5 C 6,4 km/h (2 Bft)
20.05.2022 12:20 27,1 C 26,9 C 59 % 1017,1 hPa 0,0 l/m 0,5 km/h (0 Bft) SW 230 0 min 0 W/m 18,4 C 27,1 C 4,8 km/h (1 Bft)
20.05.2022 12:16 26,9 C 26,6 C 65 % 1017,2 hPa 0,0 l/m 1,3 km/h (1 Bft) N 360 0 min 0 W/m 19,7 C 26,9 C 6,4 km/h (2 Bft)
20.05.2022 12:10 26,9 C 26,7 C 62 % 1017,5 hPa 0,0 l/m 0,2 km/h (0 Bft) W 268 0 min 0 W/m 19,0 C 26,9 C 1,6 km/h (1 Bft)
20.05.2022 12:05 26,9 C 26,6 C 64 % 1017,4 hPa 0,0 l/m 2,7 km/h (1 Bft) SW 217 0 min 0 W/m 19,5 C 26,9 C 8,0 km/h (2 Bft)
20.05.2022 12:00 26,6 C 26,3 C 69 % 1017,5 hPa 0,0 l/m 1,7 km/h (1 Bft) S-SW 204 0 min 0 W/m 20,4 C 26,6 C 9,7 km/h (2 Bft)
20.05.2022 11:56 26,3 C 25,9 C 63 % 1017,5 hPa 0,2 l/m 0,5 km/h (0 Bft) S 186 0 min 0 W/m 18,7 C 26,3 C 3,2 km/h (1 Bft)
20.05.2022 11:50 25,9 C 25,1 C 73 % 1017,5 hPa 0,0 l/m 1,9 km/h (1 Bft) S-SW 198 0 min 0 W/m 20,7 C 25,9 C 8,0 km/h (2 Bft)
20.05.2022 11:45 25,1 C 24,6 C 77 % 1017,5 hPa 0,0 l/m 0,1 km/h (0 Bft) S-SO 151 0 min 0 W/m 20,8 C 25,1 C 1,6 km/h (1 Bft)
20.05.2022 11:40 24,6 C 24,0 C 78 % 1017,6 hPa 0,0 l/m 0,0 km/h (0 Bft) S-SO 152 0 min 0 W/m 20,5 C 24,6 C 0,0 km/h (0 Bft)
20.05.2022 11:37 24,3 C 24,3 C 77 % 1017,7 hPa 0,2 l/m 2,3 km/h (1 Bft) S-SO 157 0 min 0 W/m 20,0 C 24,3 C 9,7 km/h (2 Bft)
20.05.2022 11:30 25,9 C 25,9 C 64 % 1017,8 hPa 0,0 l/m 1,9 km/h (1 Bft) SO 144 0 min 0 W/m 18,6 C 25,9 C 8,0 km/h (2 Bft)
20.05.2022 11:25 26,3 C 25,9 C 65 % 1017,8 hPa 0,0 l/m 0,9 km/h (0 Bft) S-SO 153 0 min 0 W/m 19,2 C 26,3 C 8,0 km/h (2 Bft)
20.05.2022 11:21 25,9 C 25,7 C 65 % 1017,9 hPa 0,0 l/m 0,5 km/h (0 Bft) S-SO 152 0 min 0 W/m 18,8 C 25,9 C 4,8 km/h (1 Bft)
20.05.2022 11:15 26,1 C 26,1 C 66 % 1018,1 hPa 0,0 l/m 0,8 km/h (0 Bft) S-SO 149 0 min 0 W/m 19,2 C 26,1 C 6,4 km/h (2 Bft)
20.05.2022 11:10 26,2 C 25,9 C 68 % 1018,1 hPa 0,0 l/m 1,9 km/h (1 Bft) S-SO 151 0 min 0 W/m 19,8 C 26,2 C 8,0 km/h (2 Bft)
20.05.2022 11:05 25,9 C 25,7 C 68 % 1018,2 hPa 0,0 l/m 0,0 km/h (0 Bft) S 173 0 min 0 W/m 19,5 C 25,9 C 0,0 km/h (0 Bft)
20.05.2022 11:01 25,9 C 25,7 C 66 % 1018,2 hPa 0,0 l/m 0,0 km/h (0 Bft) S 169 0 min 0 W/m 19,0 C 25,9 C 0,0 km/h (0 Bft)
20.05.2022 10:55 26,0 C 25,7 C 66 % 1018,3 hPa 0,0 l/m 0,2 km/h (0 Bft) S-SO 153 0 min 0 W/m 19,1 C 26,0 C 3,2 km/h (1 Bft)
20.05.2022 10:50 25,7 C 25,4 C 67 % 1018,3 hPa 0,0 l/m 0,0 km/h (0 Bft) SO 141 0 min 0 W/m 19,1 C 25,7 C 0,0 km/h (0 Bft)
20.05.2022 10:45 25,4 C 25,3 C 67 % 1018,4 hPa 0,0 l/m 0,1 km/h (0 Bft) S-SO 163 0 min 0 W/m 18,8 C 25,4 C 1,6 km/h (1 Bft)
20.05.2022 10:41 25,4 C 25,3 C 69 % 1018,4 hPa 0,0 l/m 0,9 km/h (0 Bft) S-SO 159 0 min 0 W/m 19,3 C 25,4 C 4,8 km/h (1 Bft)
20.05.2022 10:35 25,3 C 24,9 C 70 % 1018,6 hPa 0,0 l/m 0,5 km/h (0 Bft) S-SW 201 0 min 0 W/m 19,4 C 25,3 C 4,8 km/h (1 Bft)
20.05.2022 10:30 24,9 C 24,8 C 72 % 1018,6 hPa 0,0 l/m 0,1 km/h (0 Bft) SO 134 0 min 0 W/m 19,5 C 24,9 C 1,6 km/h (1 Bft)
20.05.2022 10:25 24,8 C 24,4 C 70 % 1018,6 hPa 0,0 l/m 1,2 km/h (1 Bft) S 171 0 min 0 W/m 18,9 C 24,8 C 6,4 km/h (2 Bft)
20.05.2022 10:21 24,4 C 24,4 C 69 % 1018,7 hPa 0,0 l/m 0,9 km/h (0 Bft) SO 145 0 min 0 W/m 18,3 C 24,4 C 6,4 km/h (2 Bft)
20.05.2022 10:15 24,5 C 24,4 C 70 % 1018,8 hPa 0,0 l/m 1,3 km/h (1 Bft) SO 140 0 min 0 W/m 18,7 C 24,5 C 8,0 km/h (2 Bft)
20.05.2022 10:10 24,4 C 24,4 C 71 % 1018,9 hPa 0,0 l/m 0,3 km/h (0 Bft) S-SO 164 0 min 0 W/m 18,8 C 24,4 C 3,2 km/h (1 Bft)
20.05.2022 10:06 24,4 C 24,2 C 69 % 1018,9 hPa 0,0 l/m 0,0 km/h (0 Bft) SO 127 0 min 0 W/m 18,3 C 24,4 C 0,0 km/h (0 Bft)
20.05.2022 10:00 24,2 C 23,9 C 71 % 1018,9 hPa 0,0 l/m 0,0 km/h (0 Bft) O-SO 119 0 min 0 W/m 18,6 C 24,2 C 0,0 km/h (0 Bft)
20.05.2022 09:55 23,9 C 23,7 C 73 % 1018,9 hPa 0,0 l/m 0,3 km/h (0 Bft) S-SO 166 0 min 0 W/m 18,8 C 23,9 C 4,8 km/h (1 Bft)
20.05.2022 09:50 23,7 C 23,6 C 71 % 1018,9 hPa 0,0 l/m 3,6 km/h (1 Bft) S-SO 162 0 min 0 W/m 18,1 C 23,7 C 12,9 km/h (3 Bft)
20.05.2022 09:46 23,6 C 23,3 C 74 % 1018,9 hPa 0,0 l/m 0,5 km/h (0 Bft) S 173 0 min 0 W/m 18,7 C 23,6 C 6,4 km/h (2 Bft)
20.05.2022 09:40 23,3 C 23,2 C 78 % 1019,0 hPa 0,0 l/m 0,8 km/h (0 Bft) SO 136 0 min 0 W/m 19,2 C 23,3 C 6,4 km/h (2 Bft)
20.05.2022 09:35 23,3 C 23,0 C 74 % 1019,0 hPa 0,0 l/m 1,1 km/h (1 Bft) S 172 0 min 0 W/m 18,4 C 23,3 C 6,4 km/h (2 Bft)
20.05.2022 09:30 23,0 C 22,8 C 73 % 1019,0 hPa 0,0 l/m 1,8 km/h (1 Bft) S-SW 196 0 min 0 W/m 17,9 C 23,0 C 6,4 km/h (2 Bft)
20.05.2022 09:26 22,8 C 22,6 C 77 % 1019,0 hPa 0,0 l/m 2,9 km/h (1 Bft) S 186 0 min 0 W/m 18,5 C 22,8 C 8,0 km/h (2 Bft)
20.05.2022 09:20 22,6 C 22,3 C 76 % 1019,1 hPa 0,0 l/m 3,4 km/h (1 Bft) S-SW 193 0 min 0 W/m 18,1 C 22,6 C 11,3 km/h (2 Bft)
20.05.2022 09:15 22,3 C 22,1 C 77 % 1019,0 hPa 0,0 l/m 2,4 km/h (1 Bft) S-SO 158 0 min 0 W/m 18,1 C 22,3 C 11,3 km/h (2 Bft)
20.05.2022 09:10 22,1 C 21,9 C 77 % 1019,0 hPa 0,0 l/m 5,6 km/h (1 Bft) S-SO 157 0 min 0 W/m 17,9 C 22,1 C 11,3 km/h (2 Bft)
20.05.2022 09:06 21,9 C 21,9 C 76 % 1019,1 hPa 0,0 l/m 4,3 km/h (1 Bft) S-SW 204 0 min 0 W/m 17,5 C 21,9 C 9,7 km/h (2 Bft)
20.05.2022 09:00 21,9 C 21,7 C 80 % 1019,1 hPa 0,0 l/m 3,1 km/h (1 Bft) S-SO 153 0 min 0 W/m 18,3 C 21,9 C 8,0 km/h (2 Bft)
20.05.2022 08:55 21,7 C 21,6 C 79 % 1019,2 hPa 0,0 l/m 3,4 km/h (1 Bft) SO 142 0 min 0 W/m 17,9 C 21,7 C 6,4 km/h (2 Bft)
20.05.2022 08:51 21,6 C 21,3 C 78 % 1019,2 hPa 0,0 l/m 4,2 km/h (1 Bft) SO 146 0 min 0 W/m 17,6 C 21,6 C 9,7 km/h (2 Bft)
20.05.2022 08:45 21,3 C 21,1 C 81 % 1019,2 hPa 0,0 l/m 4,1 km/h (1 Bft) S 169 0 min 0 W/m 17,9 C 21,3 C 8,0 km/h (2 Bft)
20.05.2022 08:40 21,1 C 20,7 C 86 % 1019,2 hPa 0,0 l/m 3,2 km/h (1 Bft) S 189 0 min 0 W/m 18,7 C 21,1 C 6,4 km/h (2 Bft)
20.05.2022 08:35 20,7 C 20,4 C 86 % 1019,2 hPa 0,0 l/m 2,6 km/h (1 Bft) S 184 0 min 0 W/m 18,3 C 20,7 C 6,4 km/h (2 Bft)
20.05.2022 08:31 20,4 C 20,4 C 88 % 1019,3 hPa 0,0 l/m 0,6 km/h (0 Bft) S 178 0 min 0 W/m 18,3 C 20,4 C 3,2 km/h (1 Bft)
20.05.2022 08:25 20,4 C 20,1 C 89 % 1019,3 hPa 0,0 l/m 1,1 km/h (1 Bft) S 178 0 min 0 W/m 18,5 C 20,4 C 3,2 km/h (1 Bft)
20.05.2022 08:20 20,1 C 19,5 C 90 % 1019,3 hPa 0,0 l/m 0,0 km/h (0 Bft) S 179 0 min 0 W/m 18,4 C 20,1 C 0,0 km/h (0 Bft)
20.05.2022 08:15 19,5 C 19,3 C 93 % 1019,2 hPa 0,0 l/m 0,0 km/h (0 Bft) N 350 0 min 0 W/m 18,3 C 19,5 C 0,0 km/h (0 Bft)
20.05.2022 08:11 19,3 C 18,8 C 94 % 1019,2 hPa 0,0 l/m 0,0 km/h (0 Bft) N 350 0 min 0 W/m 18,3 C 19,3 C 0,0 km/h (0 Bft)
20.05.2022 08:05 18,8 C 18,4 C 90 % 1019,3 hPa 0,0 l/m 0,0 km/h (0 Bft) N-NO 28 0 min 0 W/m 17,1 C 18,8 C 0,0 km/h (0 Bft)
20.05.2022 08:00 18,4 C 18,1 C 93 % 1019,3 hPa 0,0 l/m 0,0 km/h (0 Bft) N-NW 328 0 min 0 W/m 17,2 C 18,4 C 0,0 km/h (0 Bft)
20.05.2022 07:55 18,1 C 18,1 C 95 % 1019,3 hPa 0,0 l/m 0,0 km/h (0 Bft) NW 325 0 min 0 W/m 17,3 C 18,1 C 0,0 km/h (0 Bft)
20.05.2022 07:50 18,1 C 17,9 C 96 % 1019,4 hPa 0,0 l/m 0,0 km/h (0 Bft) NW 325 0 min 0 W/m 17,5 C 18,1 C 0,0 km/h (0 Bft)
20.05.2022 07:45 17,9 C 17,7 C 97 % 1019,3 hPa 0,0 l/m 0,0 km/h (0 Bft) NW 324 0 min 0 W/m 17,4 C 17,9 C 0,0 km/h (0 Bft)
20.05.2022 07:40 17,7 C 17,6 C 97 % 1019,4 hPa 0,0 l/m 0,0 km/h (0 Bft) NW 324 0 min 0 W/m 17,2 C 17,7 C 0,0 km/h (0 Bft)
20.05.2022 07:36 17,6 C 17,4 C 97 % 1019,4 hPa 0,0 l/m 0,0 km/h (0 Bft) NW 323 0 min 0 W/m 17,1 C 17,6 C 0,0 km/h (0 Bft)
20.05.2022 07:30 17,4 C 17,3 C 97 % 1019,4 hPa 0,0 l/m 0,0 km/h (0 Bft) N-NW 328 0 min 0 W/m 16,9 C 17,4 C 0,0 km/h (0 Bft)
20.05.2022 07:25 17,3 C 17,1 C 97 % 1019,3 hPa 0,0 l/m 0,0 km/h (0 Bft) N-NW 327 0 min 0 W/m 16,8 C 17,3 C 0,0 km/h (0 Bft)
20.05.2022 07:20 17,1 C 16,9 C 98 % 1019,2 hPa 0,0 l/m 0,0 km/h (0 Bft) N-NW 327 0 min 0 W/m 16,8 C 17,1 C 0,0 km/h (0 Bft)
20.05.2022 07:15 16,9 C 16,8 C 98 % 1019,3 hPa 0,0 l/m 0,0 km/h (0 Bft) N-NW 327 0 min 0 W/m 16,6 C 16,9 C 0,0 km/h (0 Bft)
20.05.2022 07:10 16,8 C 16,7 C 98 % 1019,2 hPa 0,0 l/m 0,0 km/h (0 Bft) N-NW 327 0 min 0 W/m 16,5 C 16,8 C 0,0 km/h (0 Bft)
20.05.2022 07:05 16,7 C 16,6 C 98 % 1019,2 hPa 0,0 l/m 0,0 km/h (0 Bft) NW 326 0 min 0 W/m 16,4 C 16,7 C 0,0 km/h (0 Bft)
20.05.2022 07:00 16,6 C 16,6 C 97 % 1019,2 hPa 0,0 l/m 0,0 km/h (0 Bft) NW 326 0 min 0 W/m 16,1 C 16,6 C 0,0 km/h (0 Bft)
20.05.2022 06:55 16,6 C 16,4 C 97 % 1019,2 hPa 0,0 l/m 0,0 km/h (0 Bft) NW 325 0 min 0 W/m 16,1 C 16,6 C 0,0 km/h (0 Bft)
20.05.2022 06:50 16,4 C 16,2 C 97 % 1019,2 hPa 0,0 l/m 0,0 km/h (0 Bft) N-NW 329 0 min 0 W/m 15,9 C 16,4 C 0,0 km/h (0 Bft)
20.05.2022 06:45 16,3 C 16,2 C 97 % 1019,1 hPa 0,0 l/m 0,0 km/h (0 Bft) N-NW 329 0 min 0 W/m 15,8 C 16,3 C 0,0 km/h (0 Bft)
20.05.2022 06:40 16,2 C 16,1 C 97 % 1019,1 hPa 0,0 l/m 0,0 km/h (0 Bft) NW 321 0 min 0 W/m 15,7 C 16,2 C 0,0 km/h (0 Bft)
20.05.2022 06:35 16,1 C 15,9 C 98 % 1019,1 hPa 0,0 l/m 0,0 km/h (0 Bft) N 355 0 min 0 W/m 15,8 C 16,1 C 0,0 km/h (0 Bft)
20.05.2022 06:30 16,0 C 15,9 C 97 % 1019,2 hPa 0,0 l/m 0,0 km/h (0 Bft) N 355 0 min 0 W/m 15,5 C 16,0 C 0,0 km/h (0 Bft)
20.05.2022 06:25 15,9 C 15,8 C 97 % 1019,2 hPa 0,0 l/m 0,0 km/h (0 Bft) N 355 0 min 0 W/m 15,4 C 15,9 C 0,0 km/h (0 Bft)
20.05.2022 06:20 15,8 C 15,8 C 97 % 1019,3 hPa 0,0 l/m 0,0 km/h (0 Bft) N 355 0 min 0 W/m 15,3 C 15,8 C 0,0 km/h (0 Bft)
20.05.2022 06:15 15,8 C 15,7 C 98 % 1019,4 hPa 0,0 l/m 0,0 km/h (0 Bft) N 355 0 min 0 W/m 15,5 C 15,8 C 0,0 km/h (0 Bft)
20.05.2022 06:10 15,7 C 15,6 C 98 % 1019,5 hPa 0,0 l/m 0,0 km/h (0 Bft) N 355 0 min 0 W/m 15,4 C 15,7 C 0,0 km/h (0 Bft)
20.05.2022 06:05 15,6 C 15,5 C 98 % 1019,5 hPa 0,0 l/m 0,0 km/h (0 Bft) N 355 0 min 0 W/m 15,3 C 15,6 C 0,0 km/h (0 Bft)
20.05.2022 06:00 15,5 C 15,4 C 98 % 1019,4 hPa 0,0 l/m 0,0 km/h (0 Bft) N 355 0 min 0 W/m 15,2 C 15,5 C 0,0 km/h (0 Bft)
20.05.2022 05:55 15,4 C 15,4 C 98 % 1019,5 hPa 0,0 l/m 0,0 km/h (0 Bft) N 355 0 min 0 W/m 15,1 C 15,4 C 0,0 km/h (0 Bft)
20.05.2022 05:50 15,4 C 15,4 C 98 % 1019,4 hPa 0,0 l/m 0,0 km/h (0 Bft) N 355 0 min 0 W/m 15,1 C 15,4 C 0,0 km/h (0 Bft)
20.05.2022 05:45 15,4 C 15,3 C 98 % 1019,5 hPa 0,0 l/m 0,0 km/h (0 Bft) N 355 0 min 0 W/m 15,1 C 15,4 C 0,0 km/h (0 Bft)
20.05.2022 05:40 15,4 C 15,3 C 98 % 1019,5 hPa 0,0 l/m 0,0 km/h (0 Bft) N 355 0 min 0 W/m 15,1 C 15,4 C 0,0 km/h (0 Bft)
20.05.2022 05:35 15,3 C 15,3 C 98 % 1019,4 hPa 0,0 l/m 0,0 km/h (0 Bft) N 355 0 min 0 W/m 15,0 C 15,3 C 0,0 km/h (0 Bft)
20.05.2022 05:30 15,3 C 15,2 C 98 % 1019,5 hPa 0,0 l/m 0,0 km/h (0 Bft) N 355 0 min 0 W/m 15,0 C 15,3 C 0,0 km/h (0 Bft)
20.05.2022 05:25 15,2 C 15,2 C 98 % 1019,4 hPa 0,0 l/m 0,0 km/h (0 Bft) N 355 0 min 0 W/m 14,9 C 15,2 C 0,0 km/h (0 Bft)
20.05.2022 05:20 15,2 C 15,2 C 97 % 1019,4 hPa 0,0 l/m 0,0 km/h (0 Bft) N 355 0 min 0 W/m 14,7 C 15,2 C 0,0 km/h (0 Bft)
20.05.2022 05:15 15,2 C 15,2 C 97 % 1019,5 hPa 0,0 l/m 0,0 km/h (0 Bft) N 355 0 min 0 W/m 14,7 C 15,2 C 0,0 km/h (0 Bft)
20.05.2022 05:10 15,3 C 15,2 C 97 % 1019,4 hPa 0,0 l/m 0,0 km/h (0 Bft) N 355 0 min 0 W/m 14,8 C 15,3 C 0,0 km/h (0 Bft)
20.05.2022 05:05 15,3 C 15,3 C 97 % 1019,4 hPa 0,0 l/m 0,0 km/h (0 Bft) N 355 0 min 0 W/m 14,8 C 15,3 C 0,0 km/h (0 Bft)
20.05.2022 05:00 15,3 C 15,3 C 98 % 1019,4 hPa 0,0 l/m 0,0 km/h (0 Bft) N 355 0 min 0 W/m 15,0 C 15,3 C 0,0 km/h (0 Bft)
20.05.2022 04:55 15,3 C 15,3 C 97 % 1019,5 hPa 0,0 l/m 0,0 km/h (0 Bft) N 355 0 min 0 W/m 14,8 C 15,3 C 0,0 km/h (0 Bft)
20.05.2022 04:50 15,4 C 15,3 C 98 % 1019,5 hPa 0,0 l/m 0,0 km/h (0 Bft) N 355 0 min 0 W/m 15,1 C 15,4 C 0,0 km/h (0 Bft)
20.05.2022 04:45 15,3 C 15,3 C 98 % 1019,5 hPa 0,0 l/m 0,0 km/h (0 Bft) N 355 0 min 0 W/m 15,0 C 15,3 C 0,0 km/h (0 Bft)
20.05.2022 04:40 15,3 C 15,3 C 97 % 1019,5 hPa 0,0 l/m 0,0 km/h (0 Bft) N 355 0 min 0 W/m 14,8 C 15,3 C 0,0 km/h (0 Bft)
20.05.2022 04:35 15,4 C 15,3 C 98 % 1019,5 hPa 0,0 l/m 0,0 km/h (0 Bft) N 355 0 min 0 W/m 15,1 C 15,4 C 0,0 km/h (0 Bft)
20.05.2022 04:30 15,3 C 15,3 C 98 % 1019,5 hPa 0,0 l/m 0,0 km/h (0 Bft) N 355 0 min 0 W/m 15,0 C 15,3 C 0,0 km/h (0 Bft)
20.05.2022 04:25 15,3 C 15,3 C 98 % 1019,5 hPa 0,0 l/m 0,0 km/h (0 Bft) N 355 0 min 0 W/m 15,0 C 15,3 C 0,0 km/h (0 Bft)
20.05.2022 04:20 15,3 C 15,3 C 98 % 1019,3 hPa 0,0 l/m 0,0 km/h (0 Bft) N 355 0 min 0 W/m 15,0 C 15,3 C 0,0 km/h (0 Bft)
20.05.2022 04:15 15,3 C 15,3 C 97 % 1019,3 hPa 0,0 l/m 0,0 km/h (0 Bft) N 355 0 min 0 W/m 14,8 C 15,3 C 0,0 km/h (0 Bft)
20.05.2022 04:10 15,3 C 15,3 C 97 % 1019,4 hPa 0,0 l/m 0,0 km/h (0 Bft) N 355 0 min 0 W/m 14,8 C 15,3 C 0,0 km/h (0 Bft)
20.05.2022 04:05 15,4 C 15,4 C 97 % 1019,4 hPa 0,0 l/m 0,0 km/h (0 Bft) N 355 0 min 0 W/m 14,9 C 15,4 C 0,0 km/h (0 Bft)
20.05.2022 04:00 15,5 C 15,5 C 97 % 1019,4 hPa 0,0 l/m 0,0 km/h (0 Bft) N 355 0 min 0 W/m 15,0 C 15,5 C 0,0 km/h (0 Bft)
20.05.2022 03:55 15,5 C 15,4 C 97 % 1019,4 hPa 0,0 l/m 0,0 km/h (0 Bft) N 355 0 min 0 W/m 15,0 C 15,5 C 0,0 km/h (0 Bft)
20.05.2022 03:50 15,5 C 15,5 C 97 % 1019,4 hPa 0,0 l/m 0,0 km/h (0 Bft) N 355 0 min 0 W/m 15,0 C 15,5 C 0,0 km/h (0 Bft)
20.05.2022 03:45 15,6 C 15,6 C 97 % 1019,3 hPa 0,0 l/m 0,0 km/h (0 Bft) N 355 0 min 0 W/m 15,1 C 15,6 C 0,0 km/h (0 Bft)
20.05.2022 03:40 15,6 C 15,6 C 97 % 1019,4 hPa 0,0 l/m 0,0 km/h (0 Bft) N 355 0 min 0 W/m 15,1 C 15,6 C 0,0 km/h (0 Bft)
20.05.2022 03:35 15,6 C 15,6 C 97 % 1019,5 hPa 0,0 l/m 0,0 km/h (0 Bft) N 355 0 min 0 W/m 15,1 C 15,6 C 0,0 km/h (0 Bft)
20.05.2022 03:30 15,6 C 15,6 C 96 % 1019,4 hPa 0,0 l/m 0,0 km/h (0 Bft) N 355 0 min 0 W/m 15,0 C 15,6 C 0,0 km/h (0 Bft)
20.05.2022 03:25 15,8 C 15,8 C 96 % 1019,5 hPa 0,0 l/m 0,0 km/h (0 Bft) N 355 0 min 0 W/m 15,2 C 15,8 C 0,0 km/h (0 Bft)
20.05.2022 03:20 15,9 C 15,9 C 96 % 1019,5 hPa 0,0 l/m 0,0 km/h (0 Bft) N 355 0 min 0 W/m 15,3 C 15,9 C 0,0 km/h (0 Bft)
20.05.2022 03:15 15,9 C 15,9 C 96 % 1019,5 hPa 0,0 l/m 0,0 km/h (0 Bft) N 355 0 min 0 W/m 15,3 C 15,9 C 0,0 km/h (0 Bft)
20.05.2022 03:10 15,9 C 15,9 C 96 % 1019,5 hPa 0,0 l/m 0,0 km/h (0 Bft) N 355 0 min 0 W/m 15,3 C 15,9 C 0,0 km/h (0 Bft)
20.05.2022 03:05 15,9 C 15,9 C 96 % 1019,5 hPa 0,0 l/m 0,0 km/h (0 Bft) N 355 0 min 0 W/m 15,3 C 15,9 C 0,0 km/h (0 Bft)
20.05.2022 03:00 16,0 C 16,0 C 96 % 1019,5 hPa 0,0 l/m 0,0 km/h (0 Bft) N 355 0 min 0 W/m 15,4 C 16,0 C 0,0 km/h (0 Bft)
20.05.2022 02:55 16,1 C 16,0 C 96 % 1019,5 hPa 0,0 l/m 0,0 km/h (0 Bft) N 355 0 min 0 W/m 15,5 C 16,1 C 0,0 km/h (0 Bft)
20.05.2022 02:50 16,1 C 16,0 C 96 % 1019,6 hPa 0,0 l/m 0,0 km/h (0 Bft) N 11 0 min 0 W/m 15,5 C 16,1 C 0,0 km/h (0 Bft)
20.05.2022 02:45 16,1 C 16,0 C 96 % 1019,6 hPa 0,0 l/m 0,0 km/h (0 Bft) N-NO 26 0 min 0 W/m 15,5 C 16,1 C 0,0 km/h (0 Bft)
20.05.2022 02:40 16,1 C 16,1 C 96 % 1019,7 hPa 0,0 l/m 0,0 km/h (0 Bft) N-NO 30 0 min 0 W/m 15,5 C 16,1 C 0,0 km/h (0 Bft)
20.05.2022 02:35 16,1 C 16,1 C 96 % 1019,7 hPa 0,0 l/m 0,9 km/h (0 Bft) N-NO 30 0 min 0 W/m 15,5 C 16,1 C 3,2 km/h (1 Bft)
20.05.2022 02:30 16,2 C 16,2 C 97 % 1019,8 hPa 0,0 l/m 1,9 km/h (1 Bft) N-NO 28 0 min 0 W/m 15,7 C 16,2 C 3,2 km/h (1 Bft)
20.05.2022 02:25 16,3 C 16,3 C 97 % 1019,7 hPa 0,0 l/m 0,3 km/h (0 Bft) N-NO 29 0 min 0 W/m 15,8 C 16,3 C 4,8 km/h (1 Bft)
20.05.2022 02:20 16,3 C 16,3 C 96 % 1019,8 hPa 0,0 l/m 0,0 km/h (0 Bft) NO 43 0 min 0 W/m 15,7 C 16,3 C 0,0 km/h (0 Bft)
20.05.2022 02:15 16,4 C 16,3 C 96 % 1019,8 hPa 0,0 l/m 0,3 km/h (0 Bft) NO 44 0 min 0 W/m 15,8 C 16,4 C 3,2 km/h (1 Bft)
20.05.2022 02:10 16,4 C 16,4 C 96 % 1019,9 hPa 0,0 l/m 0,0 km/h (0 Bft) NO 46 0 min 0 W/m 15,8 C 16,4 C 0,0 km/h (0 Bft)
20.05.2022 02:05 16,5 C 16,5 C 96 % 1020,0 hPa 0,0 l/m 0,9 km/h (0 Bft) NO 47 0 min 0 W/m 15,9 C 16,5 C 3,2 km/h (1 Bft)
20.05.2022 02:00 16,6 C 16,6 C 97 % 1020,0 hPa 0,0 l/m 2,8 km/h (1 Bft) NO 47 0 min 0 W/m 16,1 C 16,6 C 4,8 km/h (1 Bft)
20.05.2022 01:55 16,6 C 16,6 C 96 % 1020,0 hPa 0,0 l/m 1,6 km/h (1 Bft) O-NO 67 0 min 0 W/m 16,0 C 16,6 C 3,2 km/h (1 Bft)
20.05.2022 01:50 16,6 C 16,6 C 96 % 1019,9 hPa 0,0 l/m 0,3 km/h (0 Bft) O-NO 67 0 min 0 W/m 16,0 C 16,6 C 3,2 km/h (1 Bft)
20.05.2022 01:45 16,7 C 16,7 C 96 % 1019,9 hPa 0,0 l/m 1,9 km/h (1 Bft) O-NO 67 0 min 0 W/m 16,1 C 16,7 C 4,8 km/h (1 Bft)
20.05.2022 01:40 16,7 C 16,7 C 96 % 1019,9 hPa 0,0 l/m 0,9 km/h (0 Bft) O-NO 67 0 min 0 W/m 16,1 C 16,7 C 3,2 km/h (1 Bft)
20.05.2022 01:35 16,9 C 16,9 C 96 % 1019,9 hPa 0,0 l/m 1,7 km/h (1 Bft) O-NO 68 0 min 0 W/m 16,3 C 16,9 C 3,2 km/h (1 Bft)
20.05.2022 01:30 17,1 C 17,1 C 95 % 1019,9 hPa 0,0 l/m 2,4 km/h (1 Bft) O-NO 67 0 min 0 W/m 16,3 C 17,1 C 4,8 km/h (1 Bft)
20.05.2022 01:25 17,1 C 17,1 C 95 % 1019,9 hPa 0,0 l/m 1,5 km/h (1 Bft) O-NO 64 0 min 0 W/m 16,3 C 17,1 C 3,2 km/h (1 Bft)
20.05.2022 01:20 17,2 C 17,2 C 95 % 1019,9 hPa 0,0 l/m 0,9 km/h (0 Bft) O-NO 65 0 min 0 W/m 16,4 C 17,2 C 3,2 km/h (1 Bft)
20.05.2022 01:15 17,3 C 17,3 C 95 % 1019,9 hPa 0,0 l/m 0,0 km/h (0 Bft) O-NO 65 0 min 0 W/m 16,5 C 17,3 C 0,0 km/h (0 Bft)
20.05.2022 01:10 17,4 C 17,4 C 95 % 1020,1 hPa 0,0 l/m 0,0 km/h (0 Bft) N-NW 331 0 min 0 W/m 16,6 C 17,4 C 0,0 km/h (0 Bft)
20.05.2022 01:05 17,6 C 17,6 C 95 % 1020,0 hPa 0,0 l/m 0,0 km/h (0 Bft) N-NW 331 0 min 0 W/m 16,8 C 17,6 C 0,0 km/h (0 Bft)
20.05.2022 01:00 17,8 C 17,8 C 94 % 1019,9 hPa 0,0 l/m 0,0 km/h (0 Bft) N-NW 344 0 min 0 W/m 16,8 C 17,8 C 0,0 km/h (0 Bft)
20.05.2022 00:55 17,9 C 17,9 C 92 % 1019,9 hPa 0,0 l/m 1,9 km/h (1 Bft) N 355 0 min 0 W/m 16,6 C 17,9 C 4,8 km/h (1 Bft)
20.05.2022 00:50 17,9 C 17,8 C 93 % 1019,8 hPa 0,2 l/m 3,0 km/h (1 Bft) N 355 0 min 0 W/m 16,8 C 17,9 C 4,8 km/h (1 Bft)
20.05.2022 00:45 17,9 C 17,8 C 94 % 1020,0 hPa 0,0 l/m 2,7 km/h (1 Bft) N 350 0 min 0 W/m 16,9 C 17,9 C 4,8 km/h (1 Bft)
20.05.2022 00:40 17,8 C 17,8 C 94 % 1020,0 hPa 0,0 l/m 5,0 km/h (1 Bft) N-NW 327 0 min 0 W/m 16,8 C 17,8 C 9,7 km/h (2 Bft)
20.05.2022 00:35 17,9 C 17,9 C 94 % 1020,0 hPa 0,0 l/m 3,4 km/h (1 Bft) NW 306 0 min 0 W/m 16,9 C 17,9 C 6,4 km/h (2 Bft)
20.05.2022 00:30 18,0 C 17,9 C 94 % 1020,0 hPa 0,0 l/m 4,5 km/h (1 Bft) W-NW 282 0 min 0 W/m 17,0 C 18,0 C 9,7 km/h (2 Bft)
20.05.2022 00:25 17,9 C 17,8 C 94 % 1019,9 hPa 0,0 l/m 5,2 km/h (1 Bft) NW 312 0 min 0 W/m 16,9 C 17,9 C 11,3 km/h (2 Bft)
20.05.2022 00:20 18,1 C 18,0 C 93 % 1019,5 hPa 0,0 l/m 4,0 km/h (1 Bft) N 5 0 min 0 W/m 16,9 C 18,1 C 11,3 km/h (2 Bft)
20.05.2022 00:15 18,2 C 18,1 C 93 % 1019,6 hPa 0,0 l/m 5,9 km/h (2 Bft) S 177 0 min 0 W/m 17,0 C 18,2 C 16,1 km/h (3 Bft)
20.05.2022 00:10 18,1 C 18,0 C 94 % 1019,8 hPa 0,0 l/m 7,1 km/h (2 Bft) S-SO 163 0 min 0 W/m 17,1 C 18,1 C 17,7 km/h (3 Bft)
20.05.2022 00:05 18,1 C 18,1 C 94 % 1020,0 hPa 0,0 l/m 4,2 km/h (1 Bft) O-SO 112 0 min 0 W/m 17,1 C 18,1 C 11,3 km/h (2 Bft)
20.05.2022 00:00 18,2 C 18,2 C 93 % 1020,6 hPa 0,0 l/m 5,8 km/h (2 Bft) S-SO 150 0 min 0 W/m 17,0 C 18,2 C 11,3 km/h (2 Bft)
_ Min-Zeit 05:10 05:10 13:11 13:25 - 01:00 - - - - 05:15 05:15 01:00
Minimum _ 15,2 C 15,2 C 48 % 1016,1 hPa - 0,0 km/h (0 Bft) - - - - 14,7 C 15,2 C 0,0 km/h (0 Bft)
_ Max-Zeit 13:20 13:20 04:20 00:00 00:50 00:10 - - 00:00 00:00 11:45 13:20 00:10
Maximum _ 28,9 C 28,7 C 98 % 1020,6 hPa 0,2 l/m 7,1 km/h
S-SO (2 Bft)
- - 0 min 0 W/m 20,8 C 28,8 C 17,7 km/h
O-SO (3 Bft)
Durchschnitt _ 19,8 C 19,6 C 86 % 1019,0 hPa #0,6 l/m 1,0 km/h (0 Bft) S - #0 min. 0 W/m 17,0 C 19,8 C 3,4 km/h (1 Bft)